Montague Island Observation History
Time Wind Speed Temp Pressure Rel. Hum Rain
25/03:30pm NNE 22-27 kts 25.0°c 1001.5 hPa 80% 0.0mm
25/03:02pm NNE 17-27 kts 25.6°c 1001.5 hPa 79% 0.0mm
25/03:00pm NNE 18-27 kts 25.3°c 1001.7 hPa 80% 0.0mm
25/02:41pm NNE 17-27 kts 25.6°c 1001.9 hPa 78% 0.0mm
25/02:30pm NNE 18-27 kts 25.6°c 1002.2 hPa 79% 0.0mm
25/02:00pm NNE 21-27 kts 25.7°c 1002.5 hPa 80% 0.0mm
25/01:30pm NNE 22-27 kts 25.9°c 1003.0 hPa 78% 0.0mm
25/01:00pm NNE 22-27 kts 26.0°c 1003.6 hPa 78% 0.0mm
25/12:30pm NNE 22-27 kts 25.8°c 1004.1 hPa 80% 0.0mm
25/12:00pm NNE 20-24 kts 25.7°c 1004.6 hPa 82% 0.0mm
25/11:30am NNE 20-23 kts 25.6°c 1005.0 hPa 83% 0.0mm
25/11:00am NNE 19-24 kts 25.5°c 1005.4 hPa 82% 0.0mm
25/10:30am NNE 16-19 kts 25.4°c 1005.9 hPa 83% 0.0mm
25/10:00am NNE 15-18 kts 25.0°c 1006.2 hPa 86% 0.0mm
25/09:30am NNE 15-18 kts 24.8°c 1006.4 hPa 87% 0.0mm
25/09:00am N 11-15 kts 24.4°c 1006.8 hPa 91% 0.0mm
25/08:30am N 12-16 kts 23.7°c 1006.8 hPa 95% 0.0mm
25/08:00am N 15-18 kts 23.3°c 1006.8 hPa 99% 0.0mm
25/07:30am N 14-17 kts 23.0°c 1006.9 hPa 100% 0.0mm
25/07:00am N 11-14 kts 22.8°c 1006.9 hPa 100% 0.0mm
25/06:30am NNW 10-13 kts 22.4°c 1006.9 hPa 100% 0.0mm
25/06:00am NNW 7-9 kts 22.4°c 1006.7 hPa 99% 0.0mm
25/05:30am NNW 7-9 kts 23.0°c 1006.6 hPa 98% 0.0mm
25/05:00am NW 3-5 kts 22.9°c 1006.6 hPa 97% 0.0mm
25/04:30am WNW 4-5 kts 23.1°c 1006.8 hPa 97% 0.0mm
25/04:00am WNW 4-5 kts 23.3°c 1006.8 hPa 97% 0.0mm
25/03:30am CALM 0-1 kts 23.5°c 1007.1 hPa 96% 0.0mm
25/03:00am W 1-2 kts 23.6°c 1007.5 hPa 96% 0.0mm
25/02:30am W 2 kts 23.8°c 1007.8 hPa 96% 0.0mm
25/02:00am NNE 1-2 kts 23.9°c 1008.2 hPa 96% 0.0mm
25/01:30am E 3 kts 24.0°c 1008.4 hPa 96% 0.0mm
25/01:00am ENE 1-2 kts 24.3°c 1008.8 hPa 96% 0.0mm
25/12:30am SW 1-2 kts 24.2°c 1009.3 hPa 96% 0.0mm
25/12:00am SE 2-3 kts 24.3°c 1009.3 hPa 96% 0.0mm
Time Wind Speed Temp Pressure Rel. Hum Rain
24/11:30pm S 4 kts 24.2°c 1009.6 hPa 96% 0.0mm
24/11:00pm SSW 6 kts 24.2°c 1009.9 hPa 96% 0.0mm
24/10:30pm SE 5-6 kts 24.4°c 1010.1 hPa 96% 0.0mm
24/10:00pm S 10-11 kts 24.4°c 1009.8 hPa 95% 0.0mm
24/09:30pm SSE 7-8 kts 24.4°c 1009.9 hPa 95% 0.0mm
24/09:00pm SE 7-8 kts 24.5°c 1010.0 hPa 95% 0.0mm
24/08:30pm S 8-9 kts 24.6°c 1009.9 hPa 94% 0.0mm
24/08:00pm S 9-10 kts 24.9°c 1009.9 hPa 93% 0.0mm
24/07:30pm S 7-9 kts 25.3°c 1009.7 hPa 91% 0.0mm
24/07:00pm S 7-9 kts 25.7°c 1009.6 hPa 90% 0.0mm
24/06:30pm SSW 7-8 kts 26.0°c 1009.2 hPa 89% 0.0mm
24/06:00pm S 8-9 kts 26.1°c 1009.0 hPa 87% 0.0mm
24/05:30pm S 7-9 kts 26.2°c 1008.8 hPa 87% 0.0mm
24/05:00pm S 6-9 kts 26.1°c 1008.8 hPa 88% 0.0mm
24/04:30pm SSE 7-9 kts 26.3°c 1008.8 hPa 87% 0.0mm
24/04:00pm SSE 4-6 kts 26.2°c 1008.9 hPa 85% 0.0mm
24/03:30pm E 5-7 kts 26.6°c 1008.6 hPa 85% 0.0mm
24/03:00pm NE 9-11 kts 26.3°c 1008.6 hPa 86% 0.0mm
24/02:30pm NE 9-11 kts 26.1°c 1008.6 hPa 85% 0.0mm
24/02:00pm ENE 10-12 kts 25.7°c 1008.6 hPa 87% 0.0mm
24/01:30pm ENE 9-12 kts 26.5°c 1008.8 hPa 85% 0.0mm
24/01:00pm ENE 9-10 kts 26.5°c 1009.2 hPa 85% 0.0mm
24/12:30pm NE 8-10 kts 25.4°c 1009.6 hPa 85% 0.0mm
24/12:00pm NE 8-10 kts 25.9°c 1009.7 hPa 82% 0.0mm
24/11:30am NE 7-9 kts 25.0°c 1010.0 hPa 83% 0.0mm
24/11:00am NNE 8-9 kts 24.8°c 1010.3 hPa 83% 0.0mm
24/10:30am NE 6-9 kts 24.4°c 1010.4 hPa 82% 0.0mm
24/10:00am NNE 5-8 kts 23.6°c 1010.5 hPa 83% 0.0mm
24/09:30am NW 3-4 kts 23.8°c 1010.8 hPa 82% 0.0mm
24/09:00am WNW 3-5 kts 23.6°c 1011.0 hPa 84% n/a
24/08:30am N 4-8 kts 22.9°c 1010.8 hPa 85% n/a
24/08:00am W 3-5 kts 22.7°c 1011.0 hPa 87% n/a
24/07:30am WNW 4-6 kts 22.3°c 1010.8 hPa 89% n/a
24/07:00am NW 5-7 kts 22.1°c 1010.5 hPa 90% n/a
24/06:30am NNW 9-12 kts 22.5°c 1010.4 hPa 90% n/a
24/06:00am N 11-14 kts 22.2°c 1010.1 hPa 89% n/a
24/05:30am N 13-17 kts 22.4°c 1009.8 hPa 88% n/a
24/05:00am N 13-17 kts 22.5°c 1009.9 hPa 87% n/a
24/04:30am NNE 15-18 kts 22.6°c 1009.8 hPa 86% n/a
24/04:00am NNE 15-17 kts 22.7°c 1010.1 hPa 84% n/a
24/03:30am NNE 13-16 kts 22.8°c 1010.3 hPa 82% n/a
24/03:00am NNE 9-13 kts 22.8°c 1011.0 hPa 81% 0.0mm
24/02:30am N 10-13 kts 22.8°c 1011.4 hPa 81% n/a
24/02:00am N 9-12 kts 22.8°c 1011.9 hPa 80% n/a
24/01:30am NNW 8-10 kts 22.9°c 1012.4 hPa 79% n/a
24/01:00am N 9-12 kts 22.9°c 1012.7 hPa 79% n/a
24/12:30am N 5-7 kts 22.9°c 1013.2 hPa 79% n/a
24/12:00am NNE 6-9 kts 22.9°c 1013.3 hPa 80% n/a
Time Wind Speed Temp Pressure Rel. Hum Rain
23/11:30pm NNE 7-9 kts 22.8°c 1013.1 hPa 81% n/a
23/11:00pm NNE 5-7 kts 22.6°c 1013.3 hPa 81% n/a
23/10:30pm ENE 5-8 kts 22.5°c 1013.4 hPa 81% n/a
23/10:00pm ENE 4-6 kts 22.3°c 1013.8 hPa 81% n/a
23/09:30pm ENE 5-7 kts 22.4°c 1013.7 hPa 81% n/a
23/09:00pm ENE 6-7 kts 22.4°c 1013.4 hPa 80% 0.0mm
23/08:30pm ENE 9-11 kts 22.6°c 1013.1 hPa 79% n/a
23/08:00pm ENE 8-10 kts 22.6°c 1013.1 hPa 78% n/a
23/07:30pm ENE 8-9 kts 22.7°c 1012.8 hPa 78% n/a
23/07:00pm E 9-10 kts 22.7°c 1012.6 hPa 77% n/a
23/06:30pm E 9-11 kts 22.7°c 1012.3 hPa 77% n/a
23/06:00pm E 9-11 kts 22.7°c 1012.3 hPa 76% n/a
23/05:30pm ESE 9-13 kts 23.0°c 1012.2 hPa 75% n/a
23/05:00pm E 10-11 kts 23.1°c 1012.2 hPa 73% n/a
23/04:30pm ESE 11-12 kts 23.5°c 1012.1 hPa 72% n/a
23/04:00pm ESE 11-14 kts 23.9°c 1012.0 hPa 72% n/a
23/03:30pm ESE 12-15 kts 24.1°c 1011.9 hPa 71% n/a
23/03:00pm ESE 12-14 kts 24.1°c 1011.8 hPa 68% 0.0mm
23/02:30pm ESE 12-14 kts 24.4°c 1011.8 hPa 69% n/a
23/02:00pm E 13-15 kts 24.4°c 1011.6 hPa 67% n/a
23/01:30pm E 12-15 kts 24.6°c 1011.4 hPa 69% n/a
23/01:00pm E 11-13 kts 24.6°c 1011.7 hPa 68% n/a
23/12:30pm E 10-12 kts 25.3°c 1011.7 hPa 67% n/a
23/12:00pm ENE 9-11 kts 24.9°c 1011.8 hPa 61% n/a
23/11:30am ENE 7-10 kts 24.4°c 1012.1 hPa 61% n/a
23/11:00am E 7-8 kts 24.7°c 1012.2 hPa 63% n/a
23/10:30am E 6-7 kts 24.8°c 1012.3 hPa 61% n/a
23/10:00am - 0.0 kts 23.9°c 1012.3 hPa 62% n/a
23/09:30am CALM 0 kts 23.8°c 1012.4 hPa 61% 0.0mm
23/09:00am - 0.0 kts 23.8°c 1012.4 hPa 62% 0.0mm
23/08:30am - 0.0 kts 23.0°c 1012.3 hPa 60% 0.0mm
23/08:00am - 0.0 kts 23.3°c 1012.2 hPa 62% 0.0mm
23/07:30am - 0.0 kts 22.9°c 1012.1 hPa 62% 0.0mm
23/07:00am - 0.0 kts 22.6°c 1011.9 hPa 62% 0.0mm
23/06:30am - 0.0 kts 21.8°c 1011.5 hPa 65% 0.0mm
23/06:00am - 0.0 kts 21.8°c 1011.2 hPa 63% 0.0mm
23/05:30am - 0.0 kts 21.6°c 1010.9 hPa 76% 0.0mm
23/05:00am - 0.0 kts 21.5°c 1010.6 hPa 79% 0.0mm
23/04:30am - 0.0 kts 22.0°c 1010.5 hPa 76% 0.0mm
23/04:00am - 0.0 kts 22.3°c 1010.4 hPa 65% 0.0mm
23/03:30am - 0.0 kts 22.6°c 1010.5 hPa 61% 0.0mm
23/03:00am - 0.0 kts 22.5°c 1010.5 hPa 64% 0.0mm
23/02:30am - 0.0 kts 22.5°c 1010.6 hPa 60% 0.0mm
23/02:00am - 0.0 kts 22.7°c 1010.7 hPa 61% 0.0mm
23/01:30am - 0.0 kts 22.9°c 1010.7 hPa 58% 0.0mm
23/01:00am - 0.0 kts 22.7°c 1010.6 hPa 55% 0.0mm
23/12:30am - 0.0 kts 23.0°c 1010.7 hPa 59% 0.0mm
23/12:00am - 0.0 kts 23.2°c 1010.7 hPa 57% 0.0mm